JL1CBB-13 Weather Reports


time (UTC)temp
C
wind
direction
speed
KPH
gust
KPH
rain 1hr
cm
rain 24hr
cm
rain mn
cm
humidity
%
barometer
mb
20260509202150 16 71 0.0 3.2 0.00 0.00 0.00 39 1022.0
20260509201150 16 65 1.6 3.2 0.00 0.00 0.00 39 1022.0
20260509200152 16 79 0.0 3.2 0.00 0.00 0.00 39 1022.0
20260509195152 16 59 1.6 4.8 0.00 0.00 0.00 39 1022.0
20260509194152 16 221 0.0 0.0 0.00 0.00 0.00 39 1021.0
20260509193152 16 41 0.0 1.6 0.00 0.00 0.00 39 1021.0
20260509192151 16 264 0.0 1.6 0.00 0.00 0.00 39 1021.0
20260509191155 16 45 3.2 3.2 0.00 0.00 0.00 39 1020.0
20260509190155 16 74 3.2 3.2 0.00 0.00 0.00 39 1020.0
20260509185155 16 270 0.0 0.0 0.00 0.00 0.00 39 1021.0
20260509184155 16 97 1.6 3.2 0.00 0.00 0.00 39 1021.0
20260509183155 16 45 1.6 4.8 0.00 0.00 0.00 39 1021.0
20260509182155 16 97 0.0 0.0 0.00 0.00 0.00 40 1021.0
20260509181155 16 92 1.6 3.2 0.00 0.00 0.00 40 1021.0
20260509180154 16 116 3.2 4.8 0.00 0.00 0.00 40 1021.0
20260509175154 16 57 1.6 4.8 0.00 0.00 0.00 40 1021.0
20260509174156 16 274 0.0 3.2 0.00 0.00 0.00 40 1021.0
20260509173156 16 355 3.2 8.0 0.00 0.00 0.00 40 1021.0
20260509172155 16 54 1.6 3.2 0.00 0.00 0.00 41 1020.0
20260509171155 16 66 3.2 3.2 0.00 0.00 0.00 41 1020.0
20260509170155 16 202 3.2 3.2 0.00 0.00 0.00 41 1020.0
20260509165155 16 96 1.6 4.8 0.00 0.00 0.00 41 1020.0
20260509164155 16 43 1.6 3.2 0.00 0.00 0.00 41 1020.0
20260509163155 16 21 1.6 3.2 0.00 0.00 0.00 41 1020.0
20260509162155 16 45 1.6 3.2 0.00 0.00 0.00 41 1020.0
20260509161155 16 69 0.0 1.6 0.00 0.00 0.00 41 1019.0
20260509160156 16 100 1.6 3.2 0.00 0.00 0.00 41 1019.0
20260509155155 16 36 3.2 4.8 0.00 0.00 0.00 41 1019.0
20260509154156 16 30 3.2 4.8 0.00 0.00 0.00 40 1019.0
20260509153156 16 36 1.6 1.6 0.00 0.00 0.00 40 1019.0
20260509152155 16 48 0.0 0.0 0.00 0.00 0.00 40 1020.0
20260509151155 16 90 0.0 0.0 0.00 0.00 0.00 39 1019.0
20260509150155 17 32 0.0 1.6 0.00 0.00 0.00 39 1019.0
20260509145155 17 52 1.6 4.8 0.00 0.00 0.00 38 1019.0
20260509144155 17 52 3.2 4.8 0.00 0.00 0.00 37 1019.0
20260509143155 17 14 3.2 3.2 0.00 0.00 0.00 37 1019.0
20260509142155 17 52 0.0 0.0 0.00 0.00 0.00 37 1018.0
20260509141155 17 68 0.0 0.0 0.00 0.00 0.00 36 1019.0
20260509140155 17 20 3.2 3.2 0.00 0.00 0.00 36 1019.0
20260509135154 17 50 1.6 3.2 0.00 0.00 0.00 39 1019.0
20260509134154 18 84 1.6 0.0 0.00 0.00 0.00 39 1019.0
20260509133154 17 25 0.0 0.0 0.00 0.00 0.00 43 1019.0
20260509132154 17 51 3.2 4.8 0.00 0.00 0.00 45 1019.0
20260509131154 17 68 0.0 0.0 0.00 0.00 0.00 52 1018.0
20260509130154 17 68 1.6 3.2 0.00 0.00 0.00 52 1018.0
20260509125153 17 158 0.0 0.0 0.00 0.00 0.00 52 1018.0
20260509124155 17 180 0.0 0.0 0.00 0.00 0.00 51 1018.0
20260509123155 17 180 0.0 0.0 0.00 0.00 0.00 51 1018.0
20260509122155 17 180 0.0 0.0 0.00 0.00 0.00 51 1018.0
20260509121155 18 184 0.0 0.0 0.00 0.00 0.00 52 1018.0
20260509120155 18 180 0.0 0.0 0.00 0.00 0.00 52 1018.0
20260509115154 18 247 0.0 0.0 0.00 0.00 0.00 53 1018.0
20260509114154 18 237 1.6 3.2 0.00 0.00 0.00 54 1018.0
20260509113154 18 200 1.6 3.2 0.00 0.00 0.00 54 1018.0
20260509112154 18 210 0.0 1.6 0.00 0.00 0.00 54 1017.0
20260509111154 18 208 0.0 0.0 0.00 0.00 0.00 52 1017.0
20260509110154 19 150 0.0 1.6 0.00 0.00 0.00 51 1017.0
20260509105153 19 193 3.2 8.0 0.00 0.00 0.00 50 1017.0
20260509104154 19 220 3.2 3.2 0.00 0.00 0.00 31 1017.0
20260509103154 20 68 0.0 0.0 0.00 0.00 0.00 29 1017.0
20260509102154 20 68 0.0 0.0 0.00 0.00 0.00 25 1017.0
20260509101154 20 68 0.0 0.0 0.00 0.00 0.00 25 1017.0
20260509100154 20 25 1.6 4.8 0.00 0.00 0.00 25 1017.0
20260509095154 21 68 0.0 3.2 0.00 0.00 0.00 26 1016.0
20260509094154 21 55 1.6 3.2 0.00 0.00 0.00 25 1017.0
20260509093154 21 42 1.6 3.2 0.00 0.00 0.00 26 1017.0
20260509092153 21 313 1.6 1.6 0.00 0.00 0.00 26 1016.0
20260509091153 21 47 0.0 0.0 0.00 0.00 0.00 26 1015.0
20260509090153 22 43 1.6 3.2 0.00 0.00 0.00 26 1015.0
20260509085153 22 20 1.6 3.2 0.00 0.00 0.00 26 1014.0
20260509084153 22 219 0.0 3.2 0.00 0.00 0.00 26 1015.0
20260509083152 22 104 3.2 3.2 0.00 0.00 0.00 26 1015.0
20260509082154 22 32 1.6 4.8 0.00 0.00 0.00 26 1015.0
20260509081154 23 321 3.2 8.0 0.00 0.00 0.00 26 1015.0
20260509080154 23 38 3.2 4.8 0.00 0.00 0.00 26 1015.0
20260509075154 23 36 3.2 4.8 0.00 0.00 0.00 26 1014.0
20260509074154 23 91 0.0 3.2 0.00 0.00 0.00 26 1014.0
20260509073153 23 355 1.6 1.6 0.00 0.00 0.00 26 1014.0
20260509072153 23 278 3.2 4.8 0.00 0.00 0.00 27 1014.0
20260509071153 24 46 4.8 9.7 0.00 0.00 0.00 27 1014.0
20260509070153 24 7 3.2 3.2 0.00 0.00 0.00 27 1014.0
20260509065153 24 279 4.8 4.8 0.00 0.00 0.00 27 1013.0
20260509064153 24 24 3.2 4.8 0.00 0.00 0.00 27 1013.0
20260509063152 24 18 4.8 8.0 0.00 0.00 0.00 27 1013.0
20260509062152 23 68 3.2 4.8 0.00 0.00 0.00 27 1013.0
20260509061152 24 34 8.0 12.9 0.00 0.00 0.00 27 1013.0
20260509060152 24 22 4.8 9.7 0.00 0.00 0.00 27 1013.0
20260509055153 25 63 4.8 8.0 0.00 0.00 0.00 27 1013.0
20260509054153 24 348 1.6 4.8 0.00 0.00 0.00 28 1012.0
20260509053153 24 317 4.8 8.0 0.00 0.00 0.00 28 1012.0
20260509052154 25 241 8.0 11.3 0.00 0.00 0.00 27 1013.0
20260509051152 25 245 4.8 8.0 0.00 0.00 0.00 27 1012.0
20260509050152 26 43 0.0 3.2 0.00 0.00 0.00 27 1012.0
20260509045152 26 51 3.2 4.8 0.00 0.00 0.00 27 1012.0
20260509044152 26 243 3.2 4.8 0.00 0.00 0.00 27 1013.0
20260509043152 25 30 4.8 8.0 0.00 0.00 0.00 27 1013.0
20260509042153 26 54 9.7 14.5 0.00 0.00 0.00 27 1013.0
20260509041153 26 101 3.2 4.8 0.00 0.00 0.00 27 1013.0
20260509040153 26 8 1.6 4.8 0.00 0.00 0.00 28 1013.0
20260509035153 26 36 3.2 4.8 0.00 0.00 0.00 28 1013.0
20260509034153 25 22 3.2 4.8 0.00 0.00 0.00 28 1013.0
20260509033153 25 28 3.2 8.0 0.00 0.00 0.00 28 1013.0
20260509032152 25 76 3.2 3.2 0.00 0.00 0.00 29 1013.0
20260509031152 25 345 4.8 4.8 0.00 0.00 0.00 29 1013.0
20260509030152 24 358 8.0 12.9 0.00 0.00 0.00 29 1013.0
20260509025152 25 10 4.8 14.5 0.00 0.00 0.00 30 1013.0
20260509024152 25 39 8.0 19.3 0.00 0.00 0.00 30 1013.0
20260509023152 23 350 9.7 12.9 0.00 0.00 0.00 29 1013.0
20260509022151 24 49 4.8 8.0 0.00 0.00 0.00 29 1013.0
20260509021151 24 46 8.0 12.9 0.00 0.00 0.00 29 1013.0
20260509020151 24 60 3.2 12.9 0.00 0.00 0.00 30 1013.0
20260509015153 25 17 4.8 11.3 0.00 0.00 0.00 29 1013.0
20260509014153 24 48 4.8 12.9 0.00 0.00 0.00 30 1013.0
20260509013153 23 35 4.8 8.0 0.00 0.00 0.00 30 1013.0
20260509012153 24 3 4.8 11.3 0.00 0.00 0.00 29 1013.0
20260509011153 25 31 3.2 4.8 0.00 0.00 0.00 29 1012.0
20260509010151 24 50 3.2 9.7 0.00 0.00 0.00 29 1012.0
20260509005151 24 33 3.2 4.8 0.00 0.00 0.00 29 1013.0
20260509004151 23 68 1.6 4.8 0.00 0.00 0.00 28 1013.0
20260509003151 23 32 3.2 3.2 0.00 0.00 0.00 27 1013.0
20260509002152 23 280 3.2 3.2 0.00 0.00 0.00 27 1012.0
20260509001153 24 24 3.2 8.0 0.00 0.00 0.00 27 1012.0
20260509000152 25 33 3.2 4.8 0.00 0.00 0.00 25 1012.0
20260508235151 25 74 1.6 4.8 0.00 0.00 0.00 26 1012.0
20260508234151 25 41 4.8 4.8 0.00 0.00 0.00 26 1011.0
20260508233151 25 53 3.2 8.0 0.00 0.00 0.00 27 1011.0
20260508232151 25 9 3.2 3.2 0.00 0.00 0.00 27 1011.0
20260508231151 24 101 1.6 1.6 0.00 0.00 0.00 29 1011.0
20260508230151 23 170 3.2 4.8 0.00 0.00 0.00 30 1011.0
20260508225151 22 69 3.2 4.8 0.00 0.00 0.00 32 1010.0
20260508224151 22 34 0.0 4.8 0.00 0.00 0.00 34 1010.0
20260508223150 22 225 0.0 1.6 0.00 0.00 0.00 35 1010.0
20260508222152 21 44 3.2 4.8 0.00 0.00 0.00 35 1010.0
20260508221152 20 45 3.2 3.2 0.00 0.00 0.00 34 1010.0
20260508220152 18 45 1.6 3.2 0.00 0.00 0.00 36 1010.0
20260508215152 18 49 1.6 3.2 0.00 0.00 0.00 36 1010.0
20260508214152 18 68 0.0 1.6 0.00 0.00 0.00 37 1009.0
20260508213152 18 68 0.0 0.0 0.00 0.00 0.00 37 1009.0
20260508212152 18 34 1.6 3.2 0.00 0.00 0.00 37 1009.0
20260508211152 17 105 0.0 0.0 0.00 0.00 0.00 39 1009.0
20260508210151 17 45 0.0 3.2 0.00 0.00 0.00 39 1009.0
20260508205151 17 68 0.0 0.0 0.00 0.00 0.00 40 1009.0
20260508204151 17 128 0.0 0.0 0.00 0.00 0.00 40 1008.0
20260508203151 17 54 1.6 1.6 0.00 0.00 0.00 39 1008.0